Simultaneous Nadir Overpasses (SNOs) Predictions

Prediction of SNOs between GOES-15 and TERRA Satellite Orbit:

Table of predicted SNOs for the next 14.0 days since TLE Epoch: 3/5/2022
Index Date Time (GOES-15) GOES-15 Lat,Lon TERRA Lat,Lon Distance(km) Time Diff (sec)
1 03/05/2022 07:01:16 0.01,-127.57 -0.50,-130.04 279.91 80
2 03/07/2022 06:51:42 0.01,-127.66 0.13,-127.08 66.01 80
3 03/09/2022 06:39:28 0.01,-127.75 0.78,-124.13 411.33 80
4 03/09/2022 18:58:03 -0.01,-127.78 0.30,-129.30 172.29 80
5 03/11/2022 18:48:29 -0.01,-127.86 -0.36,-126.35 172.36 80
6 03/12/2022 07:07:12 0.02,-127.87 -0.77,-131.53 416.89 80
7 03/14/2022 06:54:58 0.02,-127.94 -0.10,-128.59 72.79 80
8 03/16/2022 06:45:23 0.02,-128.01 0.52,-125.63 271.14 80
9 03/16/2022 19:03:58 -0.03,-128.04 0.56,-130.79 312.99 80
10 03/18/2022 18:54:23 -0.02,-128.10 -0.07,-127.83 30.68 80
